CZ-6A DEB, 61356

Orbit data source: Space-Track

CZ-6A DEB, 61356 is space debris in LEO originally from a launch on Tue, 06 Aug 2024 UTC launched from the Taiyaun Space Center, China (TSC). Debris objects in space refer to the collection of defunct objects orbiting the Earth. Examples of debris include non-operational satellites, rocket bodies, and fragments generated from explosions, collisions, or faulty payload assembly.

Loading next visibility...
Identifier
61356, 2024-140VV
Orbit
LEO
Country
Flag of CNCN / PRC
Related business
Manufacturer
SAST
Mission
Spacecraft
Bus & Motor
Unknown
Mass
Unknown
Launch date (UTC)
2024-08-06 (2 years ago)
Launch vehicle
Unknown
Launch site
Taiyaun Space Center, China (TSC)
Object type
Payload
Rocket body
Debris
Shape & HBR
Unknown shape, 0.2 m
Radar Cross Section
Medium (>0.1 m² and <1 m²)

Expand to show TLE details & history
Last TLE update: 17 hours ago

TLE from 17 hours ago
0 CZ-6A DEB
1 61356U 24140VV  26171.24950961  .00001378  00000-0  55458-3 0  9994
2 61356  88.9701 271.1476 0037520 197.2326 162.7597 14.27206534 93408
Epoch: 2026-06-20T05:59Z
TLE epoch observation values (Epoch: 2026-06-20T05:59:17.630Z)
Latitude
-0.00005°
Longitude
-87.1427°
Altitude
829.887 km
Speed
7.425 km/s
True Right ascension
18h 04m 35s
True Declination
0° 00' 00"
Sunlit
Object was in full shadow at epoch
Visualization orbit readout
Latitude
Unknown
Longitude
Unknown
Altitude
Unknown
Speed
Unknown
Apparent Right ascension
Unknown
Apparent Declination
Unknown
Sunlit
N/A
Visualization observer readout
Local Sidereal Time
10:18:07
Azimuth
Unknown
Elevation
Unknown
Doppler factor
Unknown
Orbital elements
Apogee altitude
824.949 km
Perigee altitude
771.1 km
Semi-major axis
7,176.161 km
Eccentricity
0.00375
Inclination
88.9701°
RAAN
271.1476°
Arg. of periapsis
197.2326°
True anomaly
162.88656°
Mean anomaly
162.7597°
Eccentric anomaly
162.82319°
Mean motion
3.5703 °/min
Orbital period
100.83 mins
BSTAR
0.00055458
Loading maneuver chart data...
Computing Atmospheric mass density...
Loading historical data...
Loading historical data...
Loading historical data...
Loading historical data...
Loading historical data...
Loading historical data...
Loading historical data...

Documentation

Showing up to 5 results
|